www.pogodaiklimat.ru

Погода и климат >> Архив погоды >> Алжир >> Ин-Аменас


ПОГОДА в Ин-Аменасе

  • Прогноз погоды в Ин-Аменасе
  • Монитор погоды в Ин-Аменасе

АРХИВ ПОГОДЫ в Ин-Аменасе

Время (UTC), дата Ветер
(напр.,м/с)
 
Видим.   Явления Облачность Т
(С)
Тd
(С)
f
(%)
Тe
(С)
Тes
(С)
Комфортность P
(гПа)
Po
(гПа)
Тmin
(С)
Tmax
(С)
R
(мм)
R24
(мм)
S
(см)
06 19.03 СВ 7 6000 м 8/0 2000 м
[Ac trans Ci]
+19.7 -5.3 18 +19 +19 1005.6 941.8 +19.1
09 19.03 С 8 5000 м пыльный позёмок 4/0
[Ci sp]
+24.5 -3.1 16 +23 +24 комфорт 1007.6 944.6
12 19.03 СЗ 7 6000 м 4/0
[Ci sp]
+28.2 +23 +27 комфорт 1007.0 944.8
15 19.03 З 9 8000 м 4/0
[Ci sp]
+28.1 +23 +24 комфорт 1006.7 944.5
18 19.03 СЗ 6 8000 м 4/0
[Ci fib]
+23.7 +20 +20 1008.8 945.6 +29.1
21 19.03 СЗ 3 8000 м ясно +18.3 -11.9 12 +19 +19 1011.0 946.5
00 20.03 С 3 10 км ясно +14.0 -12.0 15 +13 +13 1010.2 944.8
03 20.03 СВ 3 10 км ясно +10.8 -4.5 34 +10 +10 1009.7 943.7
06 20.03 СВ 1 10 км ясно +8.9 +3.5 69 +8 +9 1011.4 944.8 +8.8
09 20.03 ЮЗ 3 10 км ясно +18.3 +4.8 41 +19 +28 1012.8 948.2
12 20.03 З 7 10 км ясно +24.0 -3.1 16 +22 +28 комфорт 1011.2 947.9
15 20.03 З 8 10 км ясно +24.8 -1.1 18 +23 +24 комфорт 1008.4 945.4
18 20.03 СЗ 4 10 км ясно +21.3 +1.5 27 +21 +21 комфорт 1010.4 946.6 +25.4
21 20.03 С 4 10 км ясно +16.6 +3.3 41 +16 +16 1013.2 948.2
00 21.03 С 5 10 км ясно +13.1 +3.2 51 +11 +11 1013.4 947.6
03 21.03 СВ 3 10 км ясно +10.8 +2.6 57 +9 +9 1013.1 946.8
06 21.03 С 3 10 км ясно +8.9 +0.9 57 +7 +7 1015.5 948.7 +8.8
09 21.03 СВ 4 10 км ясно +16.6 +1.9 37 +16 +25 1015.1 950.0
12 21.03 В 2 10 км ясно +21.5 +1.4 26 +21 +40 комфорт 1012.9 949.0
15 21.03 З 3 10 км ясно +22.9 +1.4 24 +22 +27 комфорт 1010.7 947.2
18 21.03 СЗ 7 10 км ясно +20.2 +0.3 26 +20 +20 1011.5 947.4 +23.3
00 22.03 С 3 10 км ясно +12.0 -3.0 35 +11 +11 1015.1 949.0
03 22.03 СЗ 2 10 км ясно +9.1 -3.8 40 +8 +8 1015.9 949.1
06 22.03 С 2 10 км ясно +7.2 -5.5 40 +6 +6 1017.9 950.5 +6.0
09 22.03 ЮЗ 2 10 км 3/0
[Ci sp]
+15.9 -4.6 24 +16 +29 опасность
простуды
1016.8 951.4
12 22.03 З 6 10 км 3/0
[Ci sp]
+19.5 -7.7 15 +19 +25 1015.4 950.9
15 22.03 З 10 10 км 3/0
[Ci sp]
+20.9 -8.0 14 +20 +20 1013.7 949.6
18 22.03 З 6 10 км 3/0
[Ci sp]
+18.3 -6.4 18 +18 +18 1013.8 949.1 +21.3
21 22.03 СЗ 3 10 км 3/0
[Ci sp]
+14.3 -4.4 27 +14 +14 1017.2 951.5
00 23.03 СЗ 3 10 км ясно +11.2 -0.9 43 +10 +10 1017.8 951.3
03 23.03 С 2 10 км ясно +8.8 -0.8 51 +8 +8 1018.4 951.3
06 23.03 З 2 10 км ясно +7.7 -1.1 54 +7 +7 1019.5 952.1 +7.2
09 23.03 СЗ 3 10 км ясно +15.4 +0.8 37 +15 +26 опасность
простуды
1020.0 954.3
12 23.03 З 6 10 км 4/0
[Ci sp]
+19.7 -1.3 24 +19 +26 1017.8 953.2
15 23.03 З 6 10 км 4/0
[Ci sp]
+21.4 -3.2 19 +21 +23 комфорт 1015.8 951.7
18 23.03 СЗ 4 10 км 4/0
[Ci sp]
+18.4 -3.1 23 +18 +18 1018.6 953.7 +21.7
21 23.03 С 4 10 км ясно +13.7 -3.2 31 +13 +13 1020.1 954.0
00 24.03 С 3 10 км ясно +10.9 -2.5 39 +9 +9 1020.1 953.4
03 24.03 СВ 3 10 км ясно +9.2 -1.3 48 +7 +7 1019.6 952.5
06 24.03 СВ 4 10 км 3/0
[Ci sp]
+7.5 -1.7 52 +5 +5 1020.9 953.4 +6.8
09 24.03 СВ 5 10 км 3/0
[Ci sp]
+16.5 -0.4 32 +16 +22 1022.1 956.5
12 24.03 С 4 10 км 3/0
[Ci sp]
+20.0 -1.8 23 +20 +32 1020.8 956.1
15 24.03 СВ 3 10 км 3/0
[Ci sp]
+21.5 -3.9 18 +21 +25 комфорт 1018.7 954.4
18 24.03 В 5 10 км 3/0
[Ci sp]
+20.0 -3.0 21 +20 +20 1018.1 953.5 +22.1
21 24.03 В 3 10 км 3/0
[Ci sp]
+15.7 -4.2 25 +15 +15 1020.5 954.9
00 25.03 В 3 10 км 3/0
[Ci sp]
+12.3 -4.8 30 +12 +12 1020.4 954.0
03 25.03 С 3 10 км 3/0
[Ci sp]
+9.2 -4.7 37 +7 +7 1020.6 953.5
06 25.03 В 4 10 км 3/0
[Ci sp]
+8.7 -2.8 44 +6 +7 1021.7 954.4 +7.7
09 25.03 ЮВ 5 10 км 3/0
[Ci sp]
+18.4 +0.4 30 +18 +24 1020.9 955.8
12 25.03 В 2 10 км ясно +22.9 -1.9 19 +22 +41 комфорт 1018.7 954.7
15 25.03 10 км ясно +24.2 -3.6 16 1016.3 952.7
18 25.03 ЮЗ 1 10 км ясно +21.9 -3.0 19 +21 +21 комфорт 1016.4 952.3 +25.0
21 25.03 ЮВ 1 10 км ясно +18.6 -5.0 20 +20 +20 1017.3 952.5
00 26.03 С 3 10 км ясно +14.7 -4.4 26 +14 +14 1016.8 951.2
03 26.03 штиль 0 10 км ясно +12.4 -3.6 33 +12 +12 1016.4 950.3

 

Местоположение метеостанции Ин-Аменас (Алжир): широта 28.05 долгота 9.63 высота над уровнем моря 562 м.

В архиве по умолчанию представлена погода в Ин-Аменасе за последнюю неделю. Архивные данные за месяц целиком и за предыдущие месяцы, начиная с января 2011 года, Вы можете получить, выбрав интересующий диапазон дат из раскрывающегося списка и нажав кнопку "Ввод!".


*Определитесь, кто Вы:
робот инопланетянин человек

Внимание! Время в таблицах - всемирное. Для получения местного времени необходимо прибавить поправку, которая равна 1 ч.

Смотрите также архив погоды в соседних городах и на ближайших метеорологических станциях:

Погода в Tin Fouye (Алжир) (208 км)
Погода в Иллизи (Алжир) (210 км)
Погода в Гадамесе (Ливия) (232 км)
Погода в Fadnoune (Алжир) (287 км)
Погода в Роуд-Ноусс (Алжир) (340 км)
Погода в Эль-Хамаде (Ливия) (361 км)
Погода в Bordj Haous (Алжир) (381 км)
Погода в Tinalkoum (Алжир) (388 км)
Погода в Эль Борма (Тунис) (406 км)
Погода в Djanet (Алжир) (421 км)

Пояснения к столбцам:

Ветер - указаны скорость ветра в м/с - средняя за 10 мин, порывы в срок и между сроками (в фигурных скобках) и направление, откуда дует ветер: С - северный, СВ - северо-восточный, В - восточный, ЮВ - юго-восточный, Ю - южный, ЮЗ - юго-западный, З - западный, СЗ - северо-западный.
Видимость - горизонтальная дальность видимости в метрах или километрах. При видимости от 1 до 10 км при отсутствии осадков обычно наблюдается дымка, при ухудшении видимости до 1 км и менее - туман. В сухую погоду видимость может ухудшаться дымом, пылью или мглою.
Явления - указаны атмосферные явления, наблюдавшиеся в срок или в последний час перед сроком; фигурными скобками обозначены явления, наблюдавшиеся между сроками (за 1-3 часа до срока); квадратными скобками обозначены град или гололедные отложения с указанием их диаметра в мм.
Облачность - указаны через наклонную черту общая и нижняя облачность в баллах и высота нижней границы облаков в метрах; квадратными скобками обозначены формы облаков: Ci - перистые, Cs - перисто-слоистые, Cc - перисто-кучевые, Ac - высококучевые, As - высокослоистые, Sc - слоисто-кучевые, Ns - слоисто-дождевые, Cu - кучевые, Cb - кучево-дождевые. Подробнее классификацию облаков см. в Атласе облаков (PDF).
T - Температура воздуха - температура, измеренная на высоте 2 м над землей.
Td - Температура точки росы - температура, при понижении до которой содержащийся в воздухе водяной пар достигнет насыщения.
f - Относительная влажность воздуха - влажноcть воздуха, измеренная на высоте 2 м над землей.
Te - Эффективная температура - температура, которую ощущает одетый по сезону человек в тени. Характеристика душности погоды. При расчете учитывается влияние влажности воздуха и скорости ветра на теплоощущения человека.
Tes - Эффективная температура на солнце - температура, которую ощущает человек, с поправкой на солнечный нагрев. Характеристика знойности погоды. Зависит от высоты солнца над горизонтом, облачности и скорости ветра. Ночью, в пасмурную погоду, а также при ветре 12 м/с и более поправка равна нулю.
P - Атмосферное давление - приведенное к уровню моря атмосферное давление.
Po - Атмосферное давление - измеренное на уровне метеостанции атмосферное давление.
Tmin - Минимальная температура - минимум температуры воздуха на высоте 2 м над землей.
Tmax - Максимальная температура - максимум температуры воздуха на высоте 2 м над землей.
R - Количество осадков - Количество выпавших осадков за период времени, мм. При наведении курсора мыши на число - период времени, за который выпало указанное количество осадков.
R24 - Количество осадков - Количество выпавших осадков за 24 часа, мм.
S - Снежный покров - Высота снежного покрова, см. При наведении курсора мыши на число - состояние снежного покрова и степень покрытия местности в баллах.